Location: Hampton-Harmon Observatory
(35.9871°N, 80.3709°W)
Time: 06:27:59
(UTC-05:00)

N. Korean satellite - Visible Passes

Search period start: 19 December 2018 00:00
Search period end: 29 December 2018 00:00
Orbit: 457 x 511 km, 97.2° (Epoch: 18 December)

Date Brightness Start Highest point End Pass type
(mag) Time Alt. Az. Time Alt. Az. Time Alt. Az.
19 Dec 6.8 06:54:48 10° N 06:58:19 49° WNW 07:01:52 10° SSW visible
20 Dec 6.9 06:30:09 10° NNE 06:33:47 72° E 06:37:27 10° S visible
20 Dec 9.2 18:37:20 10° SSW 18:40:02 21° W 18:42:45 10° NW visible
21 Dec 8.6 06:05:53 10° NNE 06:09:10 31° E 06:12:29 10° SSE visible
21 Dec 7.5 18:12:04 10° S 18:15:22 48° W 18:18:43 10° NNW visible
22 Dec 9.9 05:42:14 10° NE 05:44:29 15° E 05:46:43 10° SE visible
22 Dec 6.4 17:47:23 10° SSE 17:50:46 68° ENE 17:54:13 10° N visible
23 Dec 6.7 06:49:48 10° N 06:53:25 58° WNW 06:57:03 10° SSW visible
23 Dec 10.0 18:58:29 10° WSW 18:59:47 12° W 19:01:06 10° WNW visible
24 Dec 7.2 06:25:13 10° NNE 06:28:51 61° E 06:32:31 10° S visible
24 Dec 8.9 18:32:10 10° SSW 18:35:02 25° W 18:37:57 10° NW visible
25 Dec 8.9 06:01:01 10° NE 06:04:13 27° E 06:07:26 10° SSE visible
25 Dec 7.2 18:07:00 10° S 18:10:23 58° W 18:13:49 10° NNW visible
26 Dec 10.0 05:37:35 10° ENE 05:39:30 14° E 05:41:25 10° SE visible
26 Dec 6.5 17:42:26 10° SSE 17:45:48 57° ENE 17:49:13 10° N visible
27 Dec 6.6 06:44:47 10° N 06:48:28 68° WNW 06:52:10 10° SSW visible
27 Dec 9.8 18:52:55 10° SW 18:54:45 14° W 18:56:37 10° WNW visible
28 Dec 7.6 06:20:16 10° NNE 06:23:53 52° E 06:27:31 10° S visible
28 Dec 8.7 18:26:58 10° SSW 18:30:00 29° W 18:33:06 10° NW visible
